GFSSGP_sfc_dewp_132.txt.gz
Dewpoint
58 44 40 46 43 42 36 36 34 37 40 42 43 42 40 45 48 53 61 61 62 64 67 68 70 71 71 71 70 69 68 66 65 63 64 63 63 63 63 64 64 63 62 63 62 63 62 62 63
56 46 44 46 40 36 36 35 35 42 45 45 45 45 41 48 56 59 61 62 62 64 65 67 70 71 71 70 70 69 68 65 63 62 62 62 61 63 65 62 65 63 62 63 63 62 62 62 63
50 42 44 44 41 37 37 36 35 45 46 46 46 49 47 51 56 60 62 61 61 62 65 68 70 71 70 70 69 69 68 66 64 62 63 63 62 63 64 63 64 64 61 63 63 61 61 62 62
44 45 42 40 38 39 39 37 37 43 46 48 47 46 52 56 56 60 62 60 61 64 67 69 70 70 70 70 69 69 67 65 64 62 63 63 61 63 64 64 64 62 63 61 60 61 61 61 61
44 44 41 40 39 38 39 38 37 38 40 44 47 44 51 57 60 61 61 60 60 63 67 68 69 70 70 70 69 69 68 66 65 64 63 62 61 62 64 64 63 64 62 60 62 61 61 61 61
43 42 39 37 37 39 38 38 38 39 39 45 43 42 54 59 60 61 62 60 60 63 65 67 67 68 69 70 69 69 68 67 66 66 63 62 62 63 64 64 63 63 64 63 62 61 61 61 60
43 42 38 36 36 37 37 38 36 39 40 41 44 40 54 58 62 63 62 61 60 61 65 66 67 67 67 67 68 68 68 67 67 66 65 65 64 65 64 65 63 60 60 62 63 63 61 60 60
42 40 37 36 34 35 34 36 39 39 41 48 48 42 48 57 63 63 62 61 60 61 63 64 65 66 66 67 65 66 66 67 66 65 64 63 63 63 63 62 60 61 62 62 62 62 62 61 59
45 38 34 34 34 34 33 32 40 42 41 45 48 48 53 60 63 62 61 61 60 61 61 61 63 63 64 64 64 64 64 65 64 63 62 60 60 60 60 60 61 64 64 62 61 61 63 62 60
43 39 36 33 35 35 34 32 32 37 39 40 44 52 57 60 61 60 60 59 59 59 59 59 60 59 60 60 63 65 65 64 63 62 61 60 59 59 59 60 61 63 63 63 61 61 62 60 57
44 39 37 35 38 38 37 36 34 35 37 38 41 48 56 59 60 60 59 59 59 59 59 57 58 59 58 58 62 65 65 64 63 62 61 60 58 59 60 60 60 60 59 59 60 59 58 57 57
41 40 40 40 42 41 39 39 39 36 34 39 40 44 54 58 59 59 59 59 59 60 58 58 57 57 58 58 60 65 66 65 64 63 61 60 58 58 58 59 59 58 58 58 57 58 57 56 56
41 42 42 40 42 43 43 41 40 39 39 37 37 42 49 56 58 59 60 60 59 60 59 58 58 58 58 58 58 61 64 64 63 62 61 60 58 58 57 57 57 57 57 56 57 57 56 56 56
42 42 41 39 40 40 39 39 38 39 38 34 34 38 44 52 55 57 59 59 59 60 60 59 59 59 58 58 58 58 59 62 62 61 61 61 60 57 57 56 56 56 56 55 56 56 56 56 56
43 41 41 39 40 40 39 37 37 38 37 39 35 35 38 44 52 55 57 58 59 60 60 60 59 60 60 58 59 59 59 59 60 60 60 60 60 58 55 55 56 56 55 54 54 55 56 56 56
41 41 39 39 38 39 38 34 35 33 35 37 36 37 35 37 43 49 54 57 58 59 60 60 60 61 61 60 59 59 60 59 60 59 60 60 60 59 55 55 55 55 55 54 55 55 56 55 55
41 36 35 36 37 36 38 36 36 34 35 36 36 37 38 38 41 46 51 55 57 58 58 59 60 60 61 61 61 60 59 60 60 60 59 59 60 59 56 56 55 54 54 54 54 55 56 55 55
35 34 34 32 35 37 36 36 37 36 34 34 35 36 37 39 39 42 49 52 56 57 58 58 59 60 61 62 62 61 60 60 59 59 59 58 59 59 56 57 57 56 54 54 55 55 56 56 55
35 32 31 31 33 36 35 34 34 33 32 32 33 35 35 36 39 40 42 50 53 56 57 58 59 60 60 61 61 61 60 60 59 59 59 59 58 58 58 57 58 58 56 55 55 55 56 56 56
37 34 33 32 35 35 35 34 34 32 31 32 33 33 33 34 32 34 39 44 52 54 56 57 58 59 60 61 61 61 61 60 60 60 60 60 59 58 58 58 58 57 57 57 56 56 56 56 56
36 35 32 32 33 35 35 33 32 33 32 31 31 33 34 34 34 32 31 36 48 53 55 57 58 58 59 60 61 62 61 61 60 60 60 60 59 59 59 58 58 58 57 57 57 56 55 55 56
33 35 35 34 33 31 32 26 30 30 29 30 28 31 31 32 32 33 34 35 38 48 53 56 57 58 58 59 60 61 60 60 60 60 60 60 60 60 60 59 58 58 58 57 57 57 56 56 55
34 35 35 36 34 34 33 29 28 29 28 29 28 29 31 31 33 35 37 40 41 43 45 51 53 55 57 58 59 60 60 60 60 60 60 60 60 60 60 59 58 58 58 57 57 57 57 56 55
39 38 37 37 36 31 31 29 26 26 27 27 28 28 29 34 35 35 38 39 39 41 45 46 47 49 53 56 57 58 60 60 60 59 59 59 60 60 60 60 59 59 58 58 58 58 57 57 56
40 37 31 30 29 28 30 30 27 27 27 27 28 28 30 33 35 36 33 33 35 37 39 42 45 47 47 52 54 56 58 60 60 59 59 59 59 59 60 60 60 59 59 58 58 58 57 57 56
38 37 30 25 26 24 27 23 24 27 28 29 29 30 31 32 32 31 31 32 33 36 37 37 40 43 45 46 51 55 56 58 60 60 59 59 58 58 59 60 60 59 59 59 58 58 58 58 57
37 35 38 33 28 24 25 25 26 27 25 28 28 30 31 31 32 31 31 31 33 35 36 36 36 39 43 45 47 50 54 56 57 59 59 59 59 58 59 59 59 59 59 59 59 59 59 59 58
37 39 32 33 25 20 19 20 19 24 28 28 29 29 31 31 31 30 31 32 34 35 36 36 36 36 38 42 45 48 50 54 56 57 58 58 58 58 58 59 59 59 59 59 59 59 58 58 58
37 36 36 34 32 23 18 16 23 26 28 29 30 30 27 26 28 30 32 32 32 34 35 36 36 35 37 40 43 47 50 53 54 55 57 57 58 58 59 59 59 58 58 58 58 58 58 57 57
38 34 33 29 26 28 27 24 26 27 30 30 27 26 26 28 30 30 29 31 33 34 35 36 36 36 37 39 47 47 47 51 54 55 55 56 57 58 59 59 59 58 58 58 58 58 57 57 56

GFSSGP_sfc_dewp_138.txt.gz
Dewpoint
62 56 49 44 37 37 34 39 44 42 42 43 44 42 46 52 51 45 61 64 67 68 69 70 71 71 70 70 69 68 67 65 64 64 63 65 66 66 65 64 64 64 62 61 62 63 63 64 64
59 54 42 42 36 35 35 38 42 44 44 45 46 46 46 52 58 59 61 65 67 68 68 69 70 71 70 69 69 68 67 65 62 62 62 65 64 63 63 63 63 64 63 62 60 62 62 63 63
51 49 38 40 39 36 33 36 43 45 46 47 46 49 52 53 58 60 62 65 66 67 68 69 70 71 69 69 69 68 67 66 63 62 61 62 65 64 66 64 63 64 62 60 61 62 62 61 61
46 41 41 37 37 39 34 36 43 45 45 47 47 49 55 57 59 61 63 65 66 66 68 69 70 70 69 69 67 66 66 64 63 62 61 62 64 63 65 65 64 62 61 61 62 61 60 60 60
43 41 38 38 37 38 37 37 43 42 44 44 46 49 53 60 60 61 62 65 66 66 68 69 70 70 70 69 68 67 66 66 65 64 62 63 65 64 64 64 63 63 61 61 61 61 60 60 60
40 40 36 36 36 37 37 37 38 39 42 45 44 52 54 60 61 61 62 65 66 67 68 68 67 68 69 69 68 68 67 66 65 65 63 62 64 64 64 64 63 62 62 61 61 61 60 60 59
39 38 37 36 35 34 34 36 37 37 42 43 44 49 54 58 61 61 60 66 66 67 67 67 67 67 66 67 67 68 67 67 66 66 64 63 64 65 64 64 64 61 61 62 61 61 60 59 58
41 38 37 36 33 33 33 35 39 40 41 46 46 46 51 57 61 61 62 65 65 66 66 66 66 66 66 66 65 65 66 66 66 65 64 63 62 62 63 62 62 60 61 64 63 62 61 59 58
42 36 33 34 33 33 35 30 33 40 39 40 49 52 55 61 62 61 61 61 64 65 65 66 66 66 66 66 65 64 64 64 64 63 62 60 61 60 60 60 61 60 61 63 62 62 62 62 60
41 37 36 36 36 34 36 36 36 33 35 37 50 59 61 61 60 60 59 59 61 63 64 65 65 65 65 65 65 64 64 64 63 62 61 60 60 59 59 57 59 61 60 64 62 62 62 60 57
42 39 40 40 39 39 38 37 41 34 32 38 41 55 60 59 59 59 59 60 60 61 62 64 64 64 64 64 64 64 64 63 62 61 60 60 59 58 58 58 58 59 59 60 61 60 59 58 56
42 42 42 43 42 42 40 42 40 40 37 37 37 49 59 59 59 59 59 60 59 59 60 60 63 63 63 63 63 64 64 63 62 61 60 59 58 57 57 58 58 58 59 58 57 57 57 56 56
43 43 43 43 43 41 43 41 41 41 42 42 42 53 58 58 58 60 60 60 59 59 60 59 59 61 60 61 62 63 64 63 63 62 61 60 58 57 58 58 58 57 57 57 56 56 56 55 55
44 43 42 42 41 41 40 39 40 39 40 39 39 38 51 58 58 58 59 59 59 59 59 60 58 58 58 59 61 62 64 64 63 62 62 61 59 58 58 58 58 57 58 57 56 56 56 56 56
43 41 41 41 41 40 40 38 38 39 40 39 39 39 36 44 57 58 59 59 59 60 60 60 59 57 57 58 59 61 64 64 63 63 62 61 59 58 57 57 57 58 57 56 55 55 55 55 55
42 40 37 40 41 41 39 36 38 38 37 36 35 36 38 39 39 56 58 59 60 60 60 60 60 59 58 57 57 58 61 63 63 63 62 61 60 58 57 57 56 57 57 56 55 54 54 54 55
42 36 36 39 41 40 38 37 38 39 37 36 36 36 37 37 38 39 54 58 59 60 60 60 60 60 59 58 58 58 58 59 61 62 61 61 60 60 58 57 56 55 56 55 55 54 54 54 54
34 36 37 36 37 37 37 37 38 38 37 36 35 34 35 35 36 37 41 54 58 59 60 60 60 60 60 59 59 59 59 59 59 59 60 60 60 60 59 58 56 55 55 55 54 53 54 54 54
38 35 34 35 36 35 35 35 36 37 36 35 35 34 33 34 36 37 38 45 55 58 59 59 59 60 60 60 59 59 59 59 59 59 59 59 59 60 60 59 57 55 54 54 54 53 52 53 54
40 39 37 37 37 35 34 34 35 36 36 36 36 36 35 34 34 34 35 40 50 55 58 59 59 59 60 60 60 60 60 60 60 60 60 60 59 59 59 59 58 57 55 54 53 53 53 53 55
39 38 36 36 36 35 34 33 33 34 36 36 36 36 35 34 34 33 35 35 37 48 55 57 58 58 59 60 60 61 61 61 60 60 60 60 59 59 59 59 59 58 57 55 53 53 52 52 54
35 38 38 36 35 31 33 28 30 30 31 32 33 33 32 32 32 34 34 37 38 40 50 54 56 58 59 60 60 60 60 59 60 60 60 60 60 59 59 59 58 58 57 57 56 54 53 53 52
36 36 36 36 35 31 32 32 30 30 29 30 30 30 29 31 32 37 37 35 36 37 39 43 49 54 57 58 60 60 60 60 60 60 60 60 60 60 59 59 58 58 58 57 57 56 55 54 53
38 37 37 35 33 30 29 29 24 23 25 29 30 29 32 34 35 32 32 33 33 35 36 36 36 37 41 49 56 58 59 60 60 60 60 60 60 60 60 59 59 58 58 58 57 57 57 56 55
38 35 29 29 28 25 27 29 26 27 29 28 28 31 34 33 29 29 30 31 33 35 36 36 36 36 37 39 41 48 56 58 58 59 60 60 60 60 60 60 60 59 58 58 58 58 57 57 56
36 34 26 19 21 23 29 28 27 32 32 32 30 31 33 29 30 30 32 34 35 35 36 36 37 37 37 37 37 40 44 50 52 54 57 60 60 60 60 60 60 60 59 59 58 58 58 57 57
36 34 36 31 25 28 31 31 27 29 27 30 30 30 30 30 31 32 33 34 34 35 35 36 36 37 38 39 39 38 40 43 45 49 52 55 60 60 60 60 60 60 60 60 59 58 58 58 58
36 38 33 33 24 22 22 23 24 24 28 29 29 29 29 30 32 32 33 33 34 35 35 34 35 36 37 37 37 39 40 41 45 48 50 52 56 60 60 60 60 60 60 60 60 59 59 58 58
36 35 37 36 33 24 22 23 28 28 29 29 29 28 29 31 32 32 32 33 32 34 34 33 32 34 36 35 35 37 39 40 42 47 51 52 53 56 59 59 59 59 59 60 60 60 59 58 58
35 32 33 29 26 31 28 24 32 29 29 29 25 29 32 32 32 32 32 30 30 31 32 32 31 32 32 33 34 36 38 39 40 40 46 51 54 55 56 58 58 58 59 59 59 59 59 59 58

GFSSGP_sfc_dewp_141.txt.gz
Dewpoint
62 55 45 44 37 36 34 39 44 41 43 43 44 43 44 52 46 35 60 64 66 68 69 69 70 70 70 69 68 69 68 66 64 64 65 67 65 64 64 65 65 64 61 62 60 63 63 64 64
56 51 43 42 36 34 33 39 40 42 44 45 46 48 47 49 58 58 60 66 67 68 69 69 70 70 69 68 68 68 66 65 63 63 63 66 65 65 63 63 64 62 61 61 61 62 63 63 63
49 43 40 40 38 34 33 36 41 45 46 46 46 50 52 52 57 60 62 66 67 67 68 69 70 70 69 68 67 67 66 65 63 62 62 62 63 63 63 62 62 63 61 61 61 62 62 61 61
43 42 41 37 37 38 34 36 43 45 44 47 47 49 54 58 59 61 65 66 67 67 68 69 70 70 69 68 67 65 64 63 62 62 61 64 63 65 64 63 63 62 60 60 61 60 60 60 61
43 41 38 37 36 37 37 38 44 44 43 44 46 48 52 59 60 63 65 65 66 66 68 69 70 70 69 69 67 66 65 64 63 63 62 64 64 65 64 64 62 61 60 61 60 60 60 59 61
39 40 36 35 36 36 36 36 37 39 42 48 46 50 52 60 60 61 64 65 66 66 68 68 67 68 69 69 68 67 66 66 65 65 64 64 65 65 65 64 62 61 61 61 60 60 59 59 59
39 37 36 35 36 33 33 34 38 37 45 45 44 47 53 58 60 61 64 65 66 67 67 68 68 67 66 67 67 67 67 66 66 66 64 64 64 65 65 64 65 61 62 61 61 60 60 59 58
40 37 35 34 33 32 33 34 38 39 41 44 46 44 47 57 61 61 63 64 64 66 66 66 67 67 66 66 64 65 66 66 65 65 64 62 62 63 63 61 62 60 61 63 62 61 60 59 58
41 36 33 35 33 33 35 32 36 37 37 40 52 51 55 59 61 60 60 62 63 64 65 65 65 66 66 66 65 63 64 64 64 63 62 60 60 60 60 60 61 62 60 63 63 63 62 62 60
40 37 35 35 40 37 36 36 38 34 33 37 46 56 59 59 59 59 59 60 62 63 63 64 65 65 65 66 65 64 64 64 63 63 61 60 59 59 59 58 59 61 59 62 63 62 62 61 57
43 38 39 40 39 39 38 38 41 37 32 36 38 47 57 57 59 59 59 59 61 63 63 64 64 65 64 65 65 64 64 63 62 62 61 60 59 58 58 57 57 57 57 60 61 60 59 58 57
41 42 42 43 42 41 40 41 40 40 38 37 38 39 57 58 58 59 59 59 59 60 62 63 64 64 64 64 64 64 64 63 62 62 61 59 58 57 57 57 57 57 58 58 58 57 57 56 56
43 44 43 43 43 42 42 42 41 41 42 42 41 42 54 58 58 58 60 60 60 59 60 60 63 64 63 63 63 63 64 64 63 62 61 60 58 57 57 57 57 57 57 57 56 56 56 55 55
44 44 43 42 41 41 40 40 40 39 40 39 39 39 40 55 58 57 58 59 59 60 59 60 59 62 62 62 62 62 63 63 63 62 61 60 59 58 57 57 57 57 57 57 57 56 55 55 55
45 41 42 41 41 40 40 38 38 40 40 39 39 38 37 38 50 57 58 59 60 60 60 60 59 58 60 60 61 62 63 63 63 63 62 61 60 58 57 58 58 58 58 57 56 55 55 54 55
41 39 36 40 41 41 40 37 39 39 38 38 37 36 37 37 38 46 57 59 59 60 60 60 60 59 57 58 59 60 62 63 63 63 63 62 61 59 58 57 57 58 57 57 56 55 54 54 54
39 34 35 38 40 40 39 36 38 39 38 37 37 37 36 35 36 38 40 50 58 59 59 60 60 60 59 57 58 58 59 62 63 63 63 62 62 60 58 57 57 56 57 56 56 55 54 53 54
33 35 37 35 38 38 37 36 37 38 38 37 37 36 35 35 35 36 36 39 51 59 60 60 60 60 60 59 58 58 58 58 60 62 62 62 62 61 59 58 57 56 56 55 55 55 54 54 53
37 34 32 35 38 36 35 35 36 36 37 36 36 36 36 36 36 36 36 37 40 55 59 60 60 60 60 59 59 58 58 58 58 59 59 61 61 61 60 60 58 56 56 55 55 54 53 53 53
39 37 33 38 39 37 35 34 35 36 36 36 36 36 36 36 36 36 36 35 38 48 57 58 59 59 60 60 60 60 59 59 59 59 59 59 60 60 60 60 59 58 57 55 54 54 53 53 53
38 37 36 36 37 36 34 32 32 34 35 36 36 36 36 36 36 35 35 35 36 37 46 56 58 59 59 60 60 60 60 60 60 60 60 61 60 60 60 59 60 59 58 57 55 54 53 53 53
36 39 38 36 34 30 32 25 28 31 31 32 33 34 34 35 35 33 34 36 36 37 45 52 55 57 58 60 59 59 59 59 60 60 61 61 61 61 60 59 59 60 59 58 57 55 54 53 52
36 37 37 36 34 31 31 31 28 31 29 30 31 32 32 32 31 35 34 35 35 36 36 36 37 39 43 54 58 59 59 60 60 60 60 60 61 61 60 60 59 59 59 58 58 57 55 54 53
38 37 37 35 34 29 30 29 26 25 25 26 29 29 32 34 33 31 33 35 35 36 37 38 38 38 38 38 40 47 54 58 59 60 60 60 61 61 60 60 60 59 59 59 58 58 57 55 54
39 35 29 27 28 24 27 28 27 28 28 28 29 29 34 29 30 33 34 34 34 35 36 36 37 37 38 39 39 39 41 44 48 52 55 58 60 61 61 60 60 59 59 59 58 58 57 57 56
36 34 25 18 20 21 28 26 26 31 32 31 32 32 30 31 32 33 34 34 34 34 34 35 36 36 37 36 37 39 40 41 42 44 46 49 52 56 60 61 61 60 60 59 59 58 58 58 57
34 34 33 27 24 27 24 29 29 30 29 28 30 30 30 32 32 32 32 33 34 33 33 32 34 34 35 33 35 36 38 40 40 42 46 49 51 52 56 60 60 60 60 60 60 59 58 58 58
36 36 32 32 23 21 26 25 25 26 27 29 29 29 31 32 31 31 30 30 32 32 32 31 32 30 31 32 33 35 38 39 40 41 41 44 49 51 53 55 59 60 60 60 60 60 59 59 58
36 34 34 32 32 25 19 22 26 25 29 29 28 31 31 31 30 30 29 28 28 28 30 29 29 28 28 29 32 34 36 38 39 38 39 41 43 44 48 52 55 58 59 60 60 60 60 59 58
33 31 31 28 25 29 28 23 31 30 28 29 31 31 30 29 28 27 26 26 25 24 25 27 27 25 26 26 31 32 32 35 34 34 35 38 39 41 43 46 51 55 57 58 59 59 59 59 59

GFSSGP_sfc_dewp_144.txt.gz
Dewpoint
62 54 43 43 37 36 34 39 42 40 43 47 45 43 44 50 43 30 60 64 66 67 69 69 71 71 70 69 69 69 68 65 66 65 66 65 64 63 63 63 65 63 60 60 61 64 64 64 64
55 47 44 42 36 32 32 38 38 42 44 46 49 47 47 47 56 57 59 65 67 68 69 69 70 71 69 68 68 68 67 64 63 63 66 66 65 64 64 63 63 61 62 62 63 63 63 63 63
46 42 40 40 37 33 33 37 43 44 46 47 48 51 51 51 56 58 61 66 67 67 68 68 69 71 69 68 67 67 65 64 63 62 63 64 65 64 63 64 63 62 59 60 62 62 62 62 63
43 42 41 37 36 39 37 39 45 45 45 46 50 48 52 57 57 60 65 67 66 67 68 68 70 70 68 67 66 65 64 63 62 61 61 63 63 64 64 63 63 61 59 61 61 61 60 61 63
43 41 37 37 36 37 39 38 46 43 43 46 48 45 50 58 61 64 65 66 65 66 67 68 69 69 69 68 67 65 65 63 62 62 62 65 64 66 65 64 63 61 61 61 60 60 59 60 62
39 39 36 35 36 36 37 34 37 38 43 47 47 48 51 59 59 62 64 64 65 66 67 68 67 68 69 68 67 67 66 66 65 64 63 64 65 65 64 64 62 61 61 61 60 60 59 59 59
38 37 36 35 36 33 32 34 41 39 45 46 48 44 52 57 59 62 63 64 65 66 66 67 67 67 66 67 67 67 66 66 66 65 65 64 64 63 65 64 64 61 61 61 60 60 59 58 57
40 37 34 33 34 34 34 34 35 40 42 41 50 42 45 54 60 61 62 63 63 65 66 66 66 66 66 66 64 65 66 65 65 65 63 62 62 62 63 61 64 61 62 61 61 61 60 59 58
42 35 33 35 33 34 35 34 36 37 35 39 52 49 54 60 60 59 59 62 63 64 64 64 65 65 65 66 64 63 64 64 64 63 62 60 59 59 59 60 61 62 61 62 63 62 62 63 61
40 35 34 35 39 38 36 37 38 34 34 39 43 53 58 57 56 58 58 60 62 63 63 64 64 64 64 66 65 64 64 63 63 62 61 60 59 59 59 58 59 61 61 59 62 63 63 61 57
41 37 38 40 39 39 39 39 40 41 38 34 39 38 54 55 58 58 58 59 61 62 63 64 63 64 64 65 65 65 63 63 62 62 61 60 59 58 58 57 57 57 57 56 59 60 59 57 57
40 42 42 43 42 41 41 41 41 40 38 37 38 39 50 57 58 58 58 58 58 60 62 63 64 63 63 64 64 64 65 64 62 61 61 59 58 57 56 56 56 56 57 56 57 58 57 56 55
42 43 43 43 43 42 42 41 41 41 41 42 42 40 44 52 56 58 59 59 59 59 60 62 63 63 64 63 63 64 64 64 64 62 61 60 58 57 56 56 56 56 56 57 56 56 56 55 55
44 44 43 43 42 41 40 41 42 42 42 40 40 40 40 40 46 54 57 58 59 60 60 60 62 63 63 63 63 63 63 64 64 63 62 60 59 57 56 56 56 56 56 56 56 56 56 55 54
45 41 42 42 42 41 41 39 38 40 40 39 39 39 38 37 38 47 55 57 58 59 60 60 60 61 63 62 62 63 63 63 63 63 63 61 60 58 57 57 56 57 56 56 56 55 55 54 54
40 38 35 38 41 41 40 35 39 40 39 38 39 38 37 38 37 38 43 55 57 58 59 60 60 60 60 62 61 62 62 63 63 63 63 62 61 60 58 57 57 58 57 57 56 56 55 54 54
38 32 34 37 40 40 39 35 38 39 38 37 38 38 38 37 37 37 38 39 44 56 58 59 60 60 59 58 59 60 61 62 63 63 63 62 62 61 60 58 58 57 57 57 57 56 55 54 54
32 36 35 35 37 38 37 36 37 37 37 37 38 38 38 37 37 37 38 37 38 43 56 59 59 60 60 59 58 58 58 60 62 62 63 63 62 62 60 60 59 57 57 56 56 56 54 55 54
37 34 33 35 37 38 37 37 38 38 36 36 36 37 37 37 38 38 37 37 36 38 47 57 58 59 59 58 57 57 57 57 58 59 61 62 62 62 61 61 60 57 57 57 56 56 55 54 53
39 38 36 35 39 37 36 35 36 36 36 36 35 35 35 36 37 36 37 35 36 36 40 53 58 59 59 60 59 59 59 59 58 59 59 59 61 61 61 61 60 59 58 57 56 55 54 54 53
37 33 34 34 36 36 34 31 29 31 35 35 36 36 36 36 36 36 34 36 36 37 43 47 54 57 58 59 59 58 59 58 58 59 59 59 60 60 61 61 61 60 59 58 57 56 56 55 53
36 39 38 36 35 30 31 25 28 29 29 30 31 33 33 34 34 33 34 35 36 36 37 37 38 39 43 55 58 57 58 57 58 59 60 61 61 61 61 61 61 60 60 59 59 58 57 56 55
36 38 37 36 34 31 31 31 27 28 27 27 28 31 32 33 32 33 34 35 36 37 38 38 38 39 39 39 40 48 53 56 59 60 60 61 61 61 61 61 60 60 60 60 59 59 57 57 56
38 38 37 34 34 29 30 29 24 26 26 26 27 30 31 31 33 34 34 34 33 34 35 36 36 36 36 38 39 39 40 42 44 46 50 53 58 61 61 61 60 60 60 60 59 59 59 57 56
38 37 29 28 28 24 29 28 25 27 28 27 29 31 31 32 33 33 33 32 32 32 33 33 34 33 33 34 36 37 39 40 41 43 45 46 49 51 53 57 60 60 60 60 59 59 58 58 57
37 36 29 20 20 20 27 25 26 30 32 32 31 30 32 32 32 32 33 32 32 31 31 31 30 30 31 32 33 36 38 39 40 41 42 45 48 51 51 53 54 59 60 60 59 59 59 58 58
34 33 33 26 20 22 21 23 25 28 29 30 30 31 31 31 30 29 29 30 30 30 30 29 28 28 27 30 32 34 35 38 38 38 38 40 42 42 44 46 50 54 57 60 60 59 59 59 58
33 35 29 31 20 16 20 23 23 26 27 29 30 30 30 30 29 28 27 26 26 28 28 27 25 26 25 26 31 32 32 36 35 34 33 35 37 39 40 42 44 48 53 56 59 59 59 59 59
34 33 33 31 30 22 18 21 27 27 28 28 30 30 29 28 27 26 25 25 23 22 24 26 21 20 22 24 27 30 30 29 32 31 29 31 33 35 37 39 41 43 46 50 54 56 58 58 58
34 31 33 27 28 29 24 22 29 30 29 30 30 29 28 27 25 24 23 23 20 19 20 24 19 19 19 22 23 28 27 25 27 28 26 28 30 32 33 36 37 40 42 44 46 51 55 57 57

GFSSGP_sfc_dewp_147.txt.gz
Dewpoint
60 52 45 46 39 39 36 37 41 40 40 45 46 43 43 48 40 32 60 63 65 66 69 69 70 70 70 69 70 70 69 67 65 65 64 64 63 64 63 64 65 62 61 61 62 63 64 64 65
54 43 47 44 37 34 34 36 39 42 44 48 48 47 47 47 57 59 60 64 66 67 69 69 70 70 70 69 69 69 68 66 65 66 67 65 64 64 63 64 65 63 63 62 64 64 64 63 65
46 43 43 41 37 34 34 36 40 44 46 47 46 52 52 51 56 59 61 66 67 68 68 69 69 70 69 68 68 67 67 66 63 63 67 67 65 64 64 64 64 62 60 62 61 62 62 63 65
44 44 42 38 37 39 36 36 42 44 43 46 48 47 53 58 57 60 64 66 67 68 68 68 70 70 69 68 66 65 64 63 62 63 63 62 64 64 64 63 64 63 61 62 61 61 61 62 64
44 42 39 37 38 38 37 38 43 40 41 44 46 46 50 57 61 64 65 66 65 67 68 68 69 70 69 68 67 65 64 63 63 64 62 64 64 65 65 64 63 61 60 61 60 60 60 61 63
40 41 37 36 37 37 36 34 38 38 43 45 45 48 50 59 61 64 65 65 66 66 68 68 67 68 68 68 68 67 66 65 65 64 64 64 65 66 65 63 62 61 61 61 60 59 59 59 60
40 39 37 37 36 34 34 36 39 40 44 45 46 43 48 58 61 63 65 65 66 66 67 68 68 67 66 67 67 67 67 66 66 66 65 64 64 65 65 65 64 61 62 62 61 60 59 58 57
40 38 37 37 34 34 35 35 37 39 39 41 48 43 44 55 61 63 64 64 65 66 67 67 68 68 68 68 64 65 65 66 65 65 64 62 62 62 64 62 63 62 62 62 62 61 60 59 58
42 34 33 35 34 34 36 35 38 38 35 40 53 51 53 60 60 61 63 63 64 65 66 66 67 67 67 67 65 63 64 64 64 63 62 61 60 60 60 60 61 63 60 63 63 62 62 62 62
39 33 33 36 37 36 38 39 39 37 37 36 41 52 58 60 60 59 60 61 62 63 64 65 66 66 66 66 67 66 65 65 65 63 63 62 60 60 59 58 59 61 61 62 63 64 63 61 61
41 36 38 39 40 40 40 40 41 40 38 35 39 39 48 59 59 59 59 59 61 63 64 65 65 65 65 66 66 66 66 65 65 64 63 62 60 60 60 60 59 60 57 58 58 59 61 61 60
41 42 41 44 43 42 42 42 41 40 40 40 40 42 42 50 56 58 59 59 59 60 62 64 64 65 65 65 65 65 64 65 64 64 63 62 61 60 59 59 59 59 59 59 59 60 60 60 59
43 43 43 44 43 42 43 42 41 41 42 42 42 42 41 42 48 53 58 59 60 59 60 62 64 64 64 64 64 64 64 63 64 64 63 62 61 60 59 59 59 59 58 58 59 58 59 59 58
44 44 44 44 43 43 41 41 41 41 41 41 41 40 40 40 40 42 48 54 58 60 60 61 62 64 64 64 64 64 64 64 63 63 63 63 62 60 59 59 58 58 58 58 58 58 58 58 58
45 42 42 42 42 41 41 39 39 41 40 39 39 39 39 39 39 39 41 49 55 58 60 60 61 62 63 64 64 64 64 64 64 64 63 63 62 61 60 59 58 58 58 58 58 58 58 58 58
42 40 36 38 41 41 41 35 38 40 38 38 38 38 39 39 39 39 39 40 49 56 58 59 60 61 62 63 63 63 63 63 63 63 63 63 62 62 60 59 59 59 58 58 58 57 57 57 57
40 34 36 38 40 40 39 36 39 40 38 37 38 37 38 39 39 39 40 40 41 45 51 55 59 60 60 61 63 63 63 63 63 63 63 63 63 62 61 60 60 59 59 58 58 57 57 57 56
33 35 35 35 36 37 36 36 38 38 38 38 37 37 37 37 38 39 40 40 39 40 42 49 56 59 60 60 60 60 61 62 62 63 63 63 63 63 62 61 60 59 58 58 58 58 58 57 57
35 33 33 35 37 37 36 35 37 38 39 37 37 36 35 35 38 39 39 38 39 39 40 42 53 57 60 59 58 58 58 58 60 62 63 63 63 63 62 62 61 60 59 59 58 58 57 57 56
39 36 35 36 38 37 36 36 36 37 36 36 35 35 34 35 36 38 36 37 36 38 42 48 53 58 59 60 60 59 59 59 59 60 60 61 62 63 62 62 62 61 59 58 58 57 57 56 57
37 36 34 33 37 37 33 30 31 31 35 35 36 36 36 36 36 35 35 36 37 38 38 39 40 42 47 58 60 59 60 60 60 60 60 60 60 61 62 62 62 61 60 59 59 58 57 56 57
35 38 35 36 36 29 32 27 28 29 29 30 31 31 32 33 34 35 35 35 36 37 38 38 38 39 40 42 51 58 58 58 59 60 61 61 61 60 61 61 61 61 61 60 60 60 58 57 56
36 39 37 37 35 34 33 30 28 28 26 27 28 33 32 33 34 34 33 33 33 35 36 36 34 35 36 38 40 41 42 44 45 46 47 48 50 56 61 61 62 61 61 61 60 60 59 58 57
38 36 36 35 35 28 29 28 25 26 26 26 29 30 32 33 32 32 32 31 31 32 33 33 31 31 33 36 37 39 40 41 42 43 45 47 49 51 53 52 55 58 60 60 60 60 60 59 58
38 35 27 25 27 23 27 29 27 27 28 28 29 30 32 32 32 31 31 30 29 29 30 28 28 28 31 32 34 36 38 39 38 39 40 41 43 47 45 46 47 50 54 57 59 59 59 59 59
36 33 26 18 20 21 27 27 26 30 31 32 31 32 32 31 30 30 30 30 29 28 27 26 26 25 26 30 31 32 34 36 34 34 33 35 36 38 40 40 43 44 46 51 55 58 59 59 59
36 34 34 30 21 24 22 23 21 26 30 30 31 30 29 28 27 27 26 26 27 27 25 22 22 22 23 25 30 30 29 31 32 31 29 30 32 32 34 36 38 41 43 46 50 54 56 58 59
34 36 31 32 18 15 18 20 19 23 28 29 30 29 28 27 26 25 24 22 22 25 23 20 19 19 21 23 26 28 27 25 27 29 26 26 28 30 31 33 35 37 40 42 44 47 51 54 56
34 33 32 29 23 19 16 19 27 25 27 29 30 29 27 26 25 24 23 21 19 21 22 17 17 17 18 21 22 25 24 21 21 22 22 23 25 26 27 30 33 34 36 38 40 43 45 47 50
33 31 32 26 27 28 23 19 29 28 30 30 30 29 27 25 24 22 22 19 17 17 20 14 15 16 17 19 19 20 20 18 17 18 19 21 22 23 24 27 29 32 33 35 36 37 40 42 42